| time (UTC) | temp C | wind direction | speed KPH | gust KPH | rain 1hr cm | rain 24hr cm | rain mn cm | humidity % | barometer mb |
| 20260505153030 | 15 | 340 | 4.8 | 8.0 | 0.00 | 0.00 | 0.00 | 68 | 1015.2 |
| 20260505151533 | 15 | 342 | 4.8 | 8.0 | 0.00 | 0.00 | 0.00 | 69 | 1015.1 |
| 20260505124531 | 9 | 138 | 8.0 | 12.9 | 0.00 | 0.00 | 0.00 | 81 | 1014.2 |
| 20260505123031 | 9 | 140 | 6.4 | 9.7 | 0.00 | 0.00 | 0.00 | 81 | 1014.1 |
| 20260505121534 | 9 | 142 | 6.4 | 11.3 | 0.00 | 0.00 | 0.00 | 81 | 1014.1 |
| 20260505120134 | 10 | 137 | 6.4 | 9.7 | 0.00 | 0.00 | 0.00 | 80 | 1014.2 |
| 20260505113032 | 10 | 135 | 6.4 | 9.7 | 0.00 | 0.00 | 0.00 | 80 | 1014.1 |
| 20260505111607 | 10 | 135 | 6.4 | 11.3 | 0.00 | 0.00 | 0.00 | 80 | 1014.0 |
| 20260505101531 | 10 | 106 | 4.8 | 6.4 | 0.00 | 0.00 | 0.00 | 77 | 1013.8 |
| 20260505100107 | 10 | 91 | 6.4 | 9.7 | 0.00 | 0.00 | 0.00 | 76 | 1013.6 |
| 20260505094535 | 11 | 80 | 4.8 | 9.7 | 0.00 | 0.00 | 0.00 | 74 | 1013.6 |
| 20260505093037 | 11 | 136 | 8.0 | 12.9 | 0.00 | 0.00 | 0.00 | 73 | 1013.5 |
| 20260505091634 | 11 | 139 | 9.7 | 14.5 | 0.00 | 0.00 | 0.00 | 72 | 1013.4 |
| 20260505084532 | 12 | 144 | 9.7 | 16.1 | 0.00 | 0.00 | 0.00 | 72 | 1013.3 |
| 20260505083033 | 12 | 138 | 9.7 | 14.5 | 0.00 | 0.00 | 0.00 | 71 | 1013.4 |
| 20260505081535 | 12 | 136 | 9.7 | 16.1 | 0.00 | 0.00 | 0.00 | 71 | 1013.3 |
| 20260505080031 | 12 | 135 | 8.0 | 14.5 | 0.00 | 0.00 | 0.00 | 71 | 1013.4 |
| 20260505074530 | 12 | 135 | 8.0 | 11.3 | 0.00 | 0.00 | 0.00 | 71 | 1013.4 |
| 20260505073031 | 12 | 139 | 8.0 | 14.5 | 0.00 | 0.00 | 0.00 | 71 | 1013.3 |
| 20260505071530 | 13 | 144 | 8.0 | 12.9 | 0.00 | 0.00 | 0.00 | 73 | 1013.2 |
| 20260505070031 | 13 | 98 | 1.6 | 6.4 | 0.00 | 0.00 | 0.00 | 75 | 1013.1 |
| 20260505064605 | 12 | 118 | 1.6 | 8.0 | 0.00 | 0.00 | 0.00 | 75 | 1013.2 |
| 20260505063029 | 12 | 106 | 3.2 | 6.4 | 0.00 | 0.00 | 0.00 | 73 | 1013.2 |
| 20260505061536 | 12 | 115 | 3.2 | 6.4 | 0.00 | 0.00 | 0.00 | 71 | 1013.2 |
| 20260505060107 | 13 | 105 | 1.6 | 6.4 | 0.00 | 0.00 | 0.00 | 68 | 1013.2 |
| 20260505054531 | 14 | 247 | 1.6 | 9.7 | 0.00 | 0.00 | 0.00 | 67 | 1013.2 |
| 20260505053037 | 15 | 252 | 3.2 | 14.5 | 0.00 | 0.00 | 0.00 | 66 | 1013.1 |
| 20260505051605 | 14 | 241 | 4.8 | 17.7 | 0.00 | 0.00 | 0.00 | 65 | 1013.1 |
| 20260505041531 | 14 | 202 | 3.2 | 9.7 | 0.00 | 0.00 | 0.00 | 56 | 1012.7 |
| 20260505040107 | 15 | 213 | 1.6 | 6.4 | 0.00 | 0.00 | 0.00 | 54 | 1012.5 |
| 20260505034528 | 16 | 231 | 4.8 | 14.5 | 0.00 | 0.00 | 0.00 | 51 | 1012.3 |
| 20260505033030 | 16 | 223 | 1.6 | 9.7 | 0.00 | 0.00 | 0.00 | 49 | 1012.1 |
| 20260505031533 | 17 | 219 | 4.8 | 16.1 | 0.00 | 0.00 | 0.00 | 46 | 1011.9 |
| 20260505030034 | 18 | 213 | 4.8 | 17.7 | 0.00 | 0.00 | 0.00 | 45 | 1011.7 |
| 20260505023031 | 20 | 232 | 4.8 | 16.1 | 0.00 | 0.00 | 0.00 | 41 | 1011.5 |
| 20260505021605 | 20 | 295 | 4.8 | 12.9 | 0.00 | 0.00 | 0.00 | 40 | 1011.4 |
| 20260505020035 | 21 | 291 | 4.8 | 16.1 | 0.00 | 0.00 | 0.00 | 38 | 1011.3 |
| 20260505014532 | 22 | 258 | 8.0 | 20.9 | 0.00 | 0.00 | 0.00 | 36 | 1011.3 |
| 20260505013034 | 22 | 271 | 6.4 | 20.9 | 0.00 | 0.00 | 0.00 | 35 | 1011.4 |
| 20260505011536 | 22 | 245 | 6.4 | 20.9 | 0.00 | 0.00 | 0.00 | 34 | 1011.3 |
| 20260505010033 | 23 | 237 | 9.7 | 30.6 | 0.00 | 0.00 | 0.00 | 33 | 1011.3 |
| 20260505004529 | 23 | 237 | 9.7 | 33.8 | 0.00 | 0.00 | 0.00 | 33 | 1011.4 |
| 20260505003031 | 24 | 234 | 11.3 | 29.0 | 0.00 | 0.00 | 0.00 | 33 | 1011.3 |
| 20260505001528 | 24 | 234 | 14.5 | 29.0 | 0.00 | 0.00 | 0.00 | 33 | 1011.2 |
| 20260505000038 | 25 | 230 | 12.9 | 27.4 | 0.00 | 0.00 | 0.00 | 33 | 1011.3 |
| 20260504233031 | 26 | 236 | 8.0 | 22.5 | 0.00 | 0.00 | 0.00 | 33 | 1011.2 |
| 20260504230031 | 26 | 249 | 8.0 | 24.1 | 0.00 | 0.00 | 0.00 | 33 | 1011.3 |
| 20260504224531 | 26 | 237 | 9.7 | 24.1 | 0.00 | 0.00 | 0.00 | 33 | 1011.4 |
| 20260504223106 | 26 | 244 | 9.7 | 22.5 | 0.00 | 0.00 | 0.00 | 32 | 1011.4 |
| 20260504221536 | 26 | 243 | 11.3 | 22.5 | 0.00 | 0.00 | 0.00 | 32 | 1011.5 |
| 20260504220107 | 26 | 256 | 9.7 | 22.5 | 0.00 | 0.00 | 0.00 | 33 | 1011.6 |
| 20260504214535 | 26 | 275 | 11.3 | 27.4 | 0.00 | 0.00 | 0.00 | 32 | 1011.7 |
| 20260504213033 | 26 | 267 | 11.3 | 27.4 | 0.00 | 0.00 | 0.00 | 32 | 1011.7 |
| 20260504211532 | 26 | 271 | 12.9 | 22.5 | 0.00 | 0.00 | 0.00 | 31 | 1011.7 |
| 20260504203031 | 27 | 259 | 9.7 | 24.1 | 0.00 | 0.00 | 0.00 | 32 | 1011.9 |
| 20260504201607 | 27 | 273 | 9.7 | 27.4 | 0.00 | 0.00 | 0.00 | 33 | 1011.9 |
| 20260504200036 | 26 | 267 | 8.0 | 20.9 | 0.00 | 0.00 | 0.00 | 34 | 1012.0 |
| 20260504194534 | 26 | 288 | 9.7 | 20.9 | 0.00 | 0.00 | 0.00 | 35 | 1011.9 |
| 20260504193030 | 26 | 312 | 6.4 | 17.7 | 0.00 | 0.00 | 0.00 | 37 | 1012.0 |
| 20260504191533 | 26 | 315 | 6.4 | 17.7 | 0.00 | 0.00 | 0.00 | 38 | 1012.1 |
| 20260504190036 | 25 | 342 | 8.0 | 17.7 | 0.00 | 0.00 | 0.00 | 41 | 1012.2 |
| 20260504184533 | 25 | 345 | 8.0 | 16.1 | 0.00 | 0.00 | 0.00 | 41 | 1012.3 |
| 20260504183136 | 25 | 359 | 8.0 | 16.1 | 0.00 | 0.00 | 0.00 | 41 | 1012.3 |
| 20260504181529 | 25 | 8 | 6.4 | 12.9 | 0.00 | 0.00 | 0.00 | 41 | 1012.2 |
| 20260504180036 | 24 | 349 | 8.0 | 16.1 | 0.00 | 0.00 | 0.00 | 41 | 1012.2 |
| 20260504173032 | 24 | 355 | 4.8 | 11.3 | 0.00 | 0.00 | 0.00 | 41 | 1012.3 |
| 20260504171530 | 23 | 357 | 6.4 | 11.3 | 0.00 | 0.00 | 0.00 | 42 | 1012.3 |